CST,Max TemperatureF,Mean TemperatureF,Min TemperatureF,Max Dew PointF,MeanDew PointF,Min DewpointF,Max Humidity, Mean Humidity, Min Humidity, Max Sea Level PressureIn, Mean Sea Level PressureIn, Min Sea Level PressureIn, Max VisibilityMiles, Mean VisibilityMiles, Min VisibilityMiles, Max Wind SpeedMPH, Mean Wind SpeedMPH, Max Gust SpeedMPH,PrecipitationIn, CloudCover, Events, WindDirDegrees
2012-11-1,82,62,41,36,32,25,70,36,12,30.06,29.98,29.91,10,10,10,13,4,,0.00,0,,216
2012-11-2,82,68,53,43,32,18,51,31,9,30.05,29.90,29.84,10,10,10,16,8,21,0.00,0,,299
2012-11-3,64,50,37,37,34,30,93,58,28,30.24,30.17,30.06,10,10,7,10,5,17,0.00,0,,41
2012-11-4,71,50,30,37,32,27,87,57,27,30.22,30.15,30.03,10,10,10,10,3,,0.00,0,,218
2012-11-5,66,54,41,37,32,28,70,46,28,30.22,30.16,30.11,10,10,10,16,5,23,0.00,0,,356
2012-11-6,73,52,32,36,32,28,87,54,23,30.19,30.14,30.10,10,10,7,15,3,22,0.00,0,,351
2012-11-7,77,55,33,37,34,30,87,48,22,30.19,30.07,29.93,10,10,7,25,7,33,0.00,0,,184
2012-11-8,86,66,46,41,30,12,76,35,6,29.93,29.85,29.79,10,10,7,21,11,29,0.00,0,,215
2012-11-9,84,67,50,50,36,25,82,33,11,29.82,29.77,29.71,10,10,10,28,11,36,0.00,0,,218
2012-11-10,80,70,60,54,46,27,77,44,25,29.79,29.69,29.57,10,10,10,29,18,39,0.00,2,,204
2012-11-11,60,42,23,36,19,12,70,44,18,30.29,30.02,29.74,10,10,10,18,10,25,0.00,3,Rain,345
2012-11-12,53,36,19,19,10,0,74,43,11,30.44,30.39,30.30,10,10,7,12,3,16,0.00,0,,246
2012-11-13,57,40,23,21,18,14,74,40,21,30.41,30.30,30.19,10,10,7,21,8,29,0.00,0,,200
2012-11-14,66,46,26,23,15,10,59,33,12,30.33,30.24,30.14,10,10,10,24,6,29,0.00,0,,214
2012-11-15,59,46,33,28,24,19,75,44,25,30.35,30.21,30.11,10,10,10,15,8,21,0.00,0,,299
2012-11-16,60,43,26,37,30,21,86,60,36,30.40,30.33,30.26,10,10,7,17,4,22,0.00,0,,174
2012-11-17,68,56,44,43,36,32,62,51,37,30.28,30.19,30.13,10,10,10,25,15,34,0.00,0,,185
2012-11-18,68,57,46,50,39,28,88,52,35,30.15,30.06,29.99,10,10,10,24,11,31,0.00,1,Rain,183
2012-11-19,73,54,35,50,38,32,100,65,23,30.18,30.11,30.04,10,8,0,8,3,,0.00,0,Fog,110
2012-11-20,73,52,32,43,34,30,100,55,22,30.28,30.21,30.16,10,10,10,8,2,,0.00,0,,185
2012-11-21,73,56,39,46,40,32,100,55,22,30.20,30.10,29.95,10,10,5,25,8,32,0.00,0,,197
2012-11-22,75,62,48,52,37,21,82,45,14,30.37,30.02,29.89,10,10,10,24,14,36,0.00,0,,309
2012-11-23,53,42,30,32,18,7,75,43,15,30.57,30.48,30.38,10,10,10,14,6,18,0.00,0,,3
2012-11-24,68,49,30,25,18,12,55,33,15,30.39,30.13,29.90,10,10,10,22,7,30,0.00,0,,226
2012-11-25,68,47,26,25,23,19,80,46,18,29.90,29.86,29.81,10,10,10,7,3,,0.00,0,,348
2012-11-26,48,37,26,30,24,18,87,63,36,30.45,30.17,29.87,10,10,10,25,7,33,0.00,0,,7
2012-11-27,55,36,17,27,21,14,93,58,26,30.44,30.31,30.20,10,10,7,18,5,25,0.00,0,,215
2012-11-28,62,42,21,37,26,18,86,57,26,30.27,30.18,30.05,10,10,10,24,3,30,0.00,0,,181
2012-11-29,71,56,41,36,26,14,70,41,11,30.06,30.00,29.94,10,10,7,12,5,,0.00,0,,232
2012-11-30,68,48,28,43,34,27,93,65,37,30.05,29.97,29.88,10,10,5,10,1,,0.00,0,,132